Year,Month,Day,Hour,Minute,Value (Times are PST for temperature in C)
2009,04,03,08,33,-0.70
2009,04,03,08,34,-0.60
2009,04,03,08,35,-0.60
2009,04,03,08,36,-0.60
2009,04,03,08,37,-0.60
2009,04,03,08,38,-0.60
2009,04,03,08,39,-0.50
2009,04,03,08,40,-0.50
2009,04,03,08,41,-0.50
2009,04,03,08,42,-0.40
2009,04,03,08,43,-0.40
2009,04,03,08,44,-0.40
2009,04,03,08,45,-0.30
2009,04,03,08,46,-0.30
2009,04,03,08,47,-0.30
2009,04,03,08,48,-0.20
2009,04,03,08,49,-0.20
2009,04,03,08,50,-0.20
2009,04,03,08,51,-0.10
2009,04,03,08,52,-0.10
2009,04,03,08,53,-0.10
2009,04,03,08,54,0.00
2009,04,03,08,55,0.00
2009,04,03,08,56,0.10
2009,04,03,08,57,0.10
2009,04,03,08,58,0.20
2009,04,03,08,59,0.20
2009,04,03,09,00,0.20
2009,04,03,09,01,0.20
2009,04,03,09,02,0.20
2009,04,03,09,03,0.20
2009,04,03,09,04,0.20
2009,04,03,09,05,0.20
2009,04,03,09,06,0.20
2009,04,03,09,07,0.30
2009,04,03,09,08,0.30
2009,04,03,09,09,0.40
2009,04,03,09,10,0.40
2009,04,03,09,11,0.40
2009,04,03,09,12,0.50
2009,04,03,09,13,0.50
2009,04,03,09,14,0.50
2009,04,03,09,15,0.50
2009,04,03,09,16,0.50
2009,04,03,09,17,0.60
2009,04,03,09,18,0.60
2009,04,03,09,19,0.60
2009,04,03,09,20,0.60
2009,04,03,09,21,0.60
2009,04,03,09,22,0.70
2009,04,03,09,23,0.70
2009,04,03,09,24,0.70
2009,04,03,09,25,0.70
2009,04,03,09,26,0.80
2009,04,03,09,27,0.80
2009,04,03,09,28,0.80
2009,04,03,09,29,0.90
2009,04,03,09,30,0.90
2009,04,03,09,31,1.00
2009,04,03,09,32,1.00
2009,04,03,09,33,1.10
2009,04,03,09,34,1.10
2009,04,03,09,35,1.10
2009,04,03,09,36,1.20
2009,04,03,09,37,1.20
2009,04,03,09,38,1.20
2009,04,03,09,39,1.20
2009,04,03,09,40,1.30
2009,04,03,09,41,1.30
2009,04,03,09,42,1.30
2009,04,03,09,43,1.30
2009,04,03,09,44,1.30
2009,04,03,09,45,1.30
2009,04,03,09,46,1.30
2009,04,03,09,47,1.30
2009,04,03,09,48,1.30
2009,04,03,09,49,1.30
2009,04,03,09,50,1.30
2009,04,03,09,51,1.30
2009,04,03,09,52,1.30
2009,04,03,09,53,1.40
2009,04,03,09,54,1.40
2009,04,03,09,55,1.50
2009,04,03,09,56,1.50
2009,04,03,09,57,1.60
2009,04,03,09,58,1.60
2009,04,03,09,59,1.70
2009,04,03,10,00,1.80
2009,04,03,10,01,1.80
2009,04,03,10,02,1.80
2009,04,03,10,03,1.90
2009,04,03,10,04,1.90
2009,04,03,10,05,1.90
2009,04,03,10,06,1.90
2009,04,03,10,07,1.90
2009,04,03,10,08,1.90
2009,04,03,10,09,1.90
2009,04,03,10,10,1.90
2009,04,03,10,11,2.00
2009,04,03,10,12,2.00
2009,04,03,10,13,2.00
2009,04,03,10,14,2.10
2009,04,03,10,15,2.10
2009,04,03,10,16,2.10
2009,04,03,10,17,2.20
2009,04,03,10,18,2.20
2009,04,03,10,19,2.20
2009,04,03,10,20,2.20
2009,04,03,10,21,2.30
2009,04,03,10,22,2.30
2009,04,03,10,23,2.40
2009,04,03,10,24,2.40
2009,04,03,10,25,2.40
2009,04,03,10,26,2.50
2009,04,03,10,27,2.50
2009,04,03,10,28,2.60
2009,04,03,10,29,2.60
2009,04,03,10,30,2.70
2009,04,03,10,31,2.70
2009,04,03,10,32,2.70
2009,04,03,10,33,2.80
2009,04,03,10,34,2.70
2009,04,03,10,35,2.70
2009,04,03,10,36,2.70
2009,04,03,10,37,2.70
2009,04,03,10,38,2.80
2009,04,03,10,39,2.80
2009,04,03,10,40,2.80
2009,04,03,10,41,2.80
2009,04,03,10,42,2.90
2009,04,03,10,43,2.90
2009,04,03,10,44,3.00
2009,04,03,10,45,3.00
2009,04,03,10,46,3.10
2009,04,03,10,47,3.10
2009,04,03,10,48,3.10
2009,04,03,10,49,3.10
2009,04,03,10,50,3.10
2009,04,03,10,51,3.20
2009,04,03,10,52,3.20
2009,04,03,10,53,3.20
2009,04,03,10,54,3.30
2009,04,03,10,55,3.30
2009,04,03,10,56,3.40
2009,04,03,10,57,3.40
2009,04,03,10,58,3.40
2009,04,03,10,59,3.40
2009,04,03,11,00,3.40
2009,04,03,11,01,3.40
2009,04,03,11,02,3.40
2009,04,03,11,03,3.40
2009,04,03,11,04,3.40
2009,04,03,11,05,3.40
2009,04,03,11,06,3.40
2009,04,03,11,07,3.40
2009,04,03,11,08,3.50
2009,04,03,11,09,3.50
2009,04,03,11,10,3.60
2009,04,03,11,11,3.60
2009,04,03,11,12,3.60
2009,04,03,11,13,3.60
2009,04,03,11,14,3.60
2009,04,03,11,15,3.70
2009,04,03,11,16,3.70
2009,04,03,11,17,3.80
2009,04,03,11,18,3.80
2009,04,03,11,19,3.90
2009,04,03,11,20,4.00
2009,04,03,11,21,4.00
2009,04,03,11,22,4.10
2009,04,03,11,23,4.10
2009,04,03,11,24,4.20
2009,04,03,11,25,4.20
2009,04,03,11,26,4.20
2009,04,03,11,27,4.20
2009,04,03,11,28,4.30
2009,04,03,11,29,4.30
2009,04,03,11,30,4.40
2009,04,03,11,31,4.40
2009,04,03,11,32,4.50
2009,04,03,11,33,4.60
2009,04,03,11,34,4.60
2009,04,03,11,35,4.70
2009,04,03,11,36,4.80
2009,04,03,11,37,4.80
2009,04,03,11,38,4.70
2009,04,03,11,39,4.70
2009,04,03,11,40,4.70
2009,04,03,11,41,4.80
2009,04,03,11,42,4.70
2009,04,03,11,43,4.70
2009,04,03,11,44,4.70
2009,04,03,11,45,4.70
2009,04,03,11,46,4.70
2009,04,03,11,47,4.80
2009,04,03,11,48,4.80
2009,04,03,11,49,4.80
2009,04,03,11,50,4.80
2009,04,03,11,51,4.90
2009,04,03,11,52,5.00
2009,04,03,11,53,5.00
2009,04,03,11,54,5.10
2009,04,03,11,55,5.10
2009,04,03,11,56,5.10
2009,04,03,11,57,5.10
2009,04,03,11,58,5.20
2009,04,03,11,59,5.20
2009,04,03,12,00,5.20
2009,04,03,12,01,5.20
2009,04,03,12,02,5.20
2009,04,03,12,03,5.20
2009,04,03,12,04,5.20
2009,04,03,12,05,5.20
2009,04,03,12,06,5.20
2009,04,03,12,07,5.30
2009,04,03,12,08,5.30
2009,04,03,12,09,5.30
2009,04,03,12,10,5.30
2009,04,03,12,11,5.40
2009,04,03,12,12,5.30
2009,04,03,12,13,5.30
2009,04,03,12,14,5.30
2009,04,03,12,15,5.20
2009,04,03,12,16,5.20
2009,04,03,12,17,5.10
2009,04,03,12,18,5.10
2009,04,03,12,19,5.10
2009,04,03,12,20,5.10
2009,04,03,12,21,5.10
2009,04,03,12,22,5.20
2009,04,03,12,23,5.30
2009,04,03,12,24,5.30
2009,04,03,12,25,5.30
2009,04,03,12,26,5.30
2009,04,03,12,27,5.30
2009,04,03,12,28,5.30
2009,04,03,12,29,5.30
2009,04,03,12,30,5.30
2009,04,03,12,31,5.30
2009,04,03,12,32,5.40
2009,04,03,12,33,5.40
2009,04,03,12,34,5.50
2009,04,03,12,35,5.50
2009,04,03,12,36,5.60
2009,04,03,12,37,5.70
2009,04,03,12,38,5.70
2009,04,03,12,39,5.70
2009,04,03,12,40,5.80
2009,04,03,12,41,5.80
2009,04,03,12,42,5.80
2009,04,03,12,43,5.80
2009,04,03,12,44,5.70
2009,04,03,12,45,5.50
2009,04,03,12,46,5.40
2009,04,03,12,47,5.40
2009,04,03,12,48,5.40
2009,04,03,12,49,5.50
2009,04,03,12,50,5.60
2009,04,03,12,51,5.60
2009,04,03,12,52,5.70
2009,04,03,12,53,5.70
2009,04,03,12,54,5.70
2009,04,03,12,55,5.70
2009,04,03,12,56,5.80
2009,04,03,12,57,5.80
2009,04,03,12,58,5.80
2009,04,03,12,59,5.80
2009,04,03,13,00,5.90
2009,04,03,13,01,5.90
2009,04,03,13,02,5.90
2009,04,03,13,03,5.90
2009,04,03,13,04,5.90
2009,04,03,13,05,5.90
2009,04,03,13,06,5.80
2009,04,03,13,07,5.80
2009,04,03,13,08,5.80
2009,04,03,13,09,5.90
2009,04,03,13,10,5.90
2009,04,03,13,11,5.90
2009,04,03,13,12,5.90
2009,04,03,13,13,5.90
2009,04,03,13,14,6.00
2009,04,03,13,15,6.00
2009,04,03,13,16,6.10
2009,04,03,13,17,6.10
2009,04,03,13,18,6.10
2009,04,03,13,19,6.20
2009,04,03,13,20,6.40
2009,04,03,13,21,6.60
2009,04,03,13,22,6.70
2009,04,03,13,23,6.70
2009,04,03,13,24,6.60
2009,04,03,13,25,6.50
2009,04,03,13,26,6.50
2009,04,03,13,27,6.40
2009,04,03,13,28,6.40
2009,04,03,13,29,6.40
2009,04,03,13,30,6.50
2009,04,03,13,31,6.50
2009,04,03,13,32,6.60
2009,04,03,13,33,6.60
2009,04,03,13,34,6.60
2009,04,03,13,35,6.70
2009,04,03,13,36,6.80
2009,04,03,13,37,6.90
2009,04,03,13,38,7.00
2009,04,03,13,39,7.20
2009,04,03,13,40,7.20
2009,04,03,13,41,7.20
2009,04,03,13,42,7.20
2009,04,03,13,43,7.10
2009,04,03,13,44,7.10
2009,04,03,13,45,7.10
2009,04,03,13,46,7.10
2009,04,03,13,47,7.10
2009,04,03,13,48,7.10
2009,04,03,13,49,7.10
2009,04,03,13,50,7.20
2009,04,03,13,51,7.20
2009,04,03,13,52,7.20
2009,04,03,13,53,7.20
2009,04,03,13,54,7.30
2009,04,03,13,55,7.40
2009,04,03,13,56,7.50
2009,04,03,13,57,7.50
2009,04,03,13,58,7.60
2009,04,03,13,59,7.60
2009,04,03,14,00,7.60
2009,04,03,14,01,7.60
2009,04,03,14,02,7.60
2009,04,03,14,03,7.70
2009,04,03,14,04,7.70
2009,04,03,14,05,7.80
2009,04,03,14,06,7.80
2009,04,03,14,07,7.90
2009,04,03,14,08,8.00
2009,04,03,14,09,8.10
2009,04,03,14,10,8.00
2009,04,03,14,11,8.00
2009,04,03,14,12,8.00
2009,04,03,14,13,8.10
2009,04,03,14,14,8.20
2009,04,03,14,15,8.30
2009,04,03,14,16,8.30
2009,04,03,14,17,8.30
2009,04,03,14,18,8.30
2009,04,03,14,19,8.30
2009,04,03,14,20,8.40
2009,04,03,14,21,8.40
2009,04,03,14,22,8.40
2009,04,03,14,23,8.40
2009,04,03,14,24,8.50
2009,04,03,14,25,8.60
2009,04,03,14,26,8.60
2009,04,03,14,27,8.60
2009,04,03,14,28,8.60
2009,04,03,14,29,8.50
2009,04,03,14,30,8.50
2009,04,03,14,31,8.50
2009,04,03,14,32,8.60
2009,04,03,14,33,8.70
2009,04,03,14,34,8.70
2009,04,03,14,35,8.80
2009,04,03,14,36,8.80
2009,04,03,14,37,8.80
2009,04,03,14,38,8.60
2009,04,03,14,39,8.50
2009,04,03,14,40,8.50
2009,04,03,14,41,8.40
2009,04,03,14,42,8.40
2009,04,03,14,43,8.40
2009,04,03,14,44,8.50
2009,04,03,14,45,8.50
2009,04,03,14,46,8.60
2009,04,03,14,47,8.60
2009,04,03,14,48,8.60
2009,04,03,14,49,8.60
2009,04,03,14,50,8.60
2009,04,03,14,51,8.70
2009,04,03,14,52,8.70
2009,04,03,14,53,8.70
2009,04,03,14,54,8.70
2009,04,03,14,55,8.70
2009,04,03,14,56,8.70
2009,04,03,14,57,8.80
2009,04,03,14,58,8.90
2009,04,03,14,59,8.90
2009,04,03,15,00,8.90
2009,04,03,15,01,8.80
2009,04,03,15,02,8.70
2009,04,03,15,03,8.70
2009,04,03,15,04,8.80
2009,04,03,15,05,8.90
2009,04,03,15,06,9.00
2009,04,03,15,07,9.10
2009,04,03,15,08,9.10
2009,04,03,15,09,9.10
2009,04,03,15,10,9.20
2009,04,03,15,11,9.20
2009,04,03,15,12,9.10
2009,04,03,15,13,9.20
2009,04,03,15,14,9.20
2009,04,03,15,15,9.30
2009,04,03,15,16,9.20
2009,04,03,15,17,9.10
2009,04,03,15,18,9.00
2009,04,03,15,19,8.90
2009,04,03,15,20,9.00
2009,04,03,15,21,9.00
2009,04,03,15,22,9.10
2009,04,03,15,23,9.20
2009,04,03,15,24,9.30
2009,04,03,15,25,9.30
2009,04,03,15,26,9.30
2009,04,03,15,27,9.20
2009,04,03,15,28,9.20
2009,04,03,15,29,9.10
2009,04,03,15,30,9.10
2009,04,03,15,31,9.00
2009,04,03,15,32,8.90
2009,04,03,15,33,8.80
2009,04,03,15,34,8.80
2009,04,03,15,35,8.70
2009,04,03,15,36,8.70
2009,04,03,15,37,8.60
2009,04,03,15,38,8.50
2009,04,03,15,39,8.40
2009,04,03,15,40,8.30
2009,04,03,15,41,8.30
2009,04,03,15,42,8.30
2009,04,03,15,43,8.30
2009,04,03,15,44,8.30
2009,04,03,15,45,8.30
2009,04,03,15,46,8.30
2009,04,03,15,47,8.30
2009,04,03,15,48,8.30
2009,04,03,15,49,8.40
2009,04,03,15,50,8.60
2009,04,03,15,51,8.70
2009,04,03,15,52,8.80
2009,04,03,15,53,8.90
2009,04,03,15,54,9.00
2009,04,03,15,55,9.10
2009,04,03,15,56,9.20
2009,04,03,15,57,9.30
2009,04,03,15,58,9.30
2009,04,03,15,59,9.30
2009,04,03,16,00,9.30
2009,04,03,16,01,9.30
2009,04,03,16,02,9.30
2009,04,03,16,03,9.20
2009,04,03,16,04,9.10
2009,04,03,16,05,9.00
2009,04,03,16,06,9.00
2009,04,03,16,07,8.90
2009,04,03,16,08,8.90
2009,04,03,16,09,9.00
2009,04,03,16,10,9.00
2009,04,03,16,11,9.00
2009,04,03,16,12,9.10
2009,04,03,16,13,9.10
2009,04,03,16,14,9.10
2009,04,03,16,15,9.00
2009,04,03,16,16,9.00
2009,04,03,16,17,9.00
2009,04,03,16,18,9.00
2009,04,03,16,19,9.00
2009,04,03,16,20,9.00
2009,04,03,16,21,9.10
2009,04,03,16,22,9.10
2009,04,03,16,23,9.00
2009,04,03,16,24,9.00
2009,04,03,16,25,9.00
2009,04,03,16,26,8.90
2009,04,03,16,27,8.80
2009,04,03,16,28,8.80
2009,04,03,16,29,8.90
2009,04,03,16,30,8.90
2009,04,03,16,31,8.90
2009,04,03,16,32,8.80
2009,04,03,16,33,8.80
2009,04,03,16,34,8.80
2009,04,03,16,35,8.80
2009,04,03,16,36,8.70
2009,04,03,16,37,8.70
2009,04,03,16,38,8.70
2009,04,03,16,39,8.70
2009,04,03,16,40,8.70
2009,04,03,16,41,8.60
2009,04,03,16,42,8.60
2009,04,03,16,43,8.60
2009,04,03,16,44,8.60
2009,04,03,16,45,8.60
2009,04,03,16,46,8.50
2009,04,03,16,47,8.50
2009,04,03,16,48,8.50
2009,04,03,16,49,8.50
2009,04,03,16,50,8.50
2009,04,03,16,51,8.50
2009,04,03,16,52,8.50
2009,04,03,16,53,8.50
2009,04,03,16,54,8.60
2009,04,03,16,55,8.60
2009,04,03,16,56,8.60
2009,04,03,16,57,8.50
2009,04,03,16,58,8.50
2009,04,03,16,59,8.40
2009,04,03,17,00,8.40
2009,04,03,17,01,8.40
2009,04,03,17,02,8.40
2009,04,03,17,03,8.40
2009,04,03,17,04,8.40
2009,04,03,17,05,8.40
2009,04,03,17,06,8.40
2009,04,03,17,07,8.40
2009,04,03,17,08,8.40
2009,04,03,17,09,8.40
2009,04,03,17,10,8.40
2009,04,03,17,11,8.50
2009,04,03,17,12,8.50
2009,04,03,17,13,8.50
2009,04,03,17,14,8.50
2009,04,03,17,15,8.50
2009,04,03,17,16,8.50
2009,04,03,17,17,8.60
2009,04,03,17,18,8.60
2009,04,03,17,19,8.60
2009,04,03,17,20,8.50
2009,04,03,17,21,8.50
2009,04,03,17,22,8.50
2009,04,03,17,23,8.60
2009,04,03,17,24,8.60
2009,04,03,17,25,8.60
2009,04,03,17,26,8.60
2009,04,03,17,27,8.60
2009,04,03,17,28,8.60
2009,04,03,17,29,8.60
2009,04,03,17,30,8.70
2009,04,03,17,31,8.70
2009,04,03,17,32,8.70
2009,04,03,17,33,8.80
2009,04,03,17,34,8.70
2009,04,03,17,35,8.70
2009,04,03,17,36,8.70
2009,04,03,17,37,8.70
2009,04,03,17,38,8.80
2009,04,03,17,39,8.80
2009,04,03,17,40,8.80
2009,04,03,17,41,8.90
2009,04,03,17,42,8.90
2009,04,03,17,43,8.90
2009,04,03,17,44,9.00
2009,04,03,17,45,9.00
2009,04,03,17,46,9.00
2009,04,03,17,47,9.10
2009,04,03,17,48,9.10
2009,04,03,17,49,9.10
2009,04,03,17,50,9.10
2009,04,03,17,51,9.10
2009,04,03,17,52,9.10
2009,04,03,17,53,9.10
2009,04,03,17,54,9.20
2009,04,03,17,55,9.20
2009,04,03,17,56,9.20
2009,04,03,17,57,9.10
2009,04,03,17,58,9.10
2009,04,03,17,59,9.10
2009,04,03,18,00,9.10
2009,04,03,18,01,9.10
2009,04,03,18,02,9.20
2009,04,03,18,03,9.20
2009,04,03,18,04,9.20
2009,04,03,18,05,9.20
2009,04,03,18,06,9.10
2009,04,03,18,07,9.10
2009,04,03,18,08,9.10
2009,04,03,18,09,9.10
2009,04,03,18,10,9.10
2009,04,03,18,11,9.10
2009,04,03,18,12,9.10
2009,04,03,18,13,9.10
2009,04,03,18,14,9.00
2009,04,03,18,15,8.90
2009,04,03,18,16,8.90
2009,04,03,18,17,8.90
2009,04,03,18,18,8.90
2009,04,03,18,19,8.90
2009,04,03,18,20,8.90
2009,04,03,18,21,8.90
2009,04,03,18,22,8.90
2009,04,03,18,23,8.90
2009,04,03,18,24,8.90
2009,04,03,18,25,8.90
